METEOR 2-17 DEB, 28989

Orbit data source: Space-Track

METEOR 2-17 DEB, 28989 is space debris in LEO originally from a launch on Sat, 30 Jan 1988 UTC launched from the Plesetsk Missile And Space Complex (PKMTR). Debris objects in space refer to the collection of defunct objects orbiting the Earth. Examples of debris include non-operational satellites, rocket bodies, and fragments generated from explosions, collisions, or faulty payload assembly.

Loading next visibility...
Identifier
28989, 1988-005D
Orbit
LEO
Country
Flag of CISCIS
Related business
Manufacturer
Unknown
Mission
Spacecraft
Bus & Motor
Unknown
Mass
Unknown
Launch date (UTC)
1988-01-30 (38 years ago)
Launch vehicle
Unknown
Launch site
Plesetsk Missile And Space Complex (PKMTR)
Object type
Payload
Rocket body
Debris
Shape & HBR
Unknown shape, 0.1 m
Radar Cross Section
Small (<0.1 m²)

Expand to show TLE details & history
Last TLE update: 1 week ago

TLE from 1 week ago
0 METEOR 2-17 DEB
1 28989U 88005D   25344.35969820  .00004495  00000-0  23819-2 0  9994
2 28989  82.5244  10.0310 0028149 247.5693 112.2501 14.13276218634143
Epoch: 2025-12-10T08:37Z
TLE epoch observation values (Epoch: 2025-12-10T08:37:57.924Z)
Latitude
-0.00006°
Longitude
161.20849°
Altitude
858.877 km
Speed
7.419 km/s
True Right ascension
00h 40m 07s
True Declination
0° 00' 00"
Sunlit
Object was in daylight at epoch
Visualization orbit readout
Latitude
Unknown
Longitude
Unknown
Altitude
Unknown
Speed
Unknown
Apparent Right ascension
Unknown
Apparent Declination
Unknown
Sunlit
N/A
Visualization observer readout
Local Sidereal Time
20:37:42
Azimuth
Unknown
Elevation
Unknown
Doppler factor
Unknown
Orbital elements
Apogee altitude
865.628 km
Perigee altitude
824.962 km
Semi-major axis
7,223.432 km
Eccentricity
0.00281
Inclination
82.5244°
RAAN
10.031°
Arg. of periapsis
247.5693°
True anomaly
112.54825°
Mean anomaly
112.2501°
Eccentric anomaly
112.39921°
Mean motion
3.53531 °/min
Orbital period
101.83 mins
BSTAR
0.0023819
Loading maneuver chart data...
Computing Atmospheric mass density...
Loading historical data...
Loading historical data...
Loading historical data...
Loading historical data...
Loading historical data...
Loading historical data...
Loading historical data...

Documentation

Showing up to 5 results
|